Weather in Gagra

Abkhazia     43°16′49″N   40°15′54″E
temp.,
°C
wind,
m/s
gust,
m/s
humid.,
%
clouds,
%
prec.,
mm/h
press.,
hPa
HPBL,
m
7 may, fri
fri700:00+16ne226096 0.0 101419
03:00+14ene3374100 0.0 101656
06:00+14ese687766 0.0 1017231
09:00+15se678310 0.0 1019394
12:00+16sse45784 0.1 1019303
15:00+15s33786 0.1 1018255
18:00+15wsw01775 0.0 101892
21:00+14e22815 0.0 101913
8 may, sat
sat800:00+14e33772 0.0 101839
03:00+14e45756 0.0 101777
06:00+15ne3370100 0.0 101634
09:00+17sse2263100 0.0 1014208
12:00+18nne1261100 0.0 1014203
15:00+21nw1253100 0.0 1012105
18:00+20nne225514 0.0 101111
21:00+18ne4447100 0.0 101123
9 may, sun
sun900:00+16nnw345894 0.0 101345
03:00+16wsw2370100 0.0 101458
06:00+13se6994100 5.0 1015459
09:00+13se71096100 9.0 1015534
12:00+12wnw7798100 17.9 1017372
15:00+11wnw9982100 25.4 1021784
18:00+12wnw787273 0.2 10231028
21:00+11nw447137 0.3 1024817
10 may, mon
mon1000:00+11w236379 0.1 1025919
03:00+10s016467 0.1 1024405
06:00+10n11657 0.0 1025227
09:00+11wsw226112 0.1 1025551
12:00+12wnw345875 0.4 1025793
15:00+12w445569 0.8 1024970
18:00+11wnw3361100 0.5 1023555
21:00+11nne116198 0.6 1024441
11 may, tue
tue1100:00+9e2266100 0.3 1023175
03:00+10ese3467100 0.8 1023309
06:00+10ene3458100 0.1 1023497
09:00+11se455789 0.2 1022881
12:00+12sse556391 0.1 1022984
15:00+12sse3366100 0.3 1022935
18:00+11ssw116894 0.1 1021521
21:00+11sse116799 0.1 1020269